Weather History for KGNA - October, 2013

Change the Weather History Date:

Wednesday, October 23, 2013

  Actual Average (KCKC) Record (KCKC)
Temperature  
Mean Temperature 34 °F -  
Max Temperature 39 °F 42 °F 69 °F (1998)
Min Temperature 30 °F 30 °F 19 °F (1997)
Degree Days  
Heating Degree Days 30    
Moisture  
Dew Point 25 °F    
Average Humidity 65    
Maximum Humidity 85    
Minimum Humidity 54    
Precipitation  
Precipitation 0.01 in - - ()
Sea Level Pressure  
Sea Level Pressure 29.94 in    
Wind  
Wind Speed 6 mph (WNW)    
Max Wind Speed 10 mph    
Max Gust Speed 26 mph    
Averages and records for this station are not official NWS values.
T = Trace of Precipitation, MM = Missing Value Source: NWS Daily Summary

Daily Weather History Graph

Daily Weather History Graph

Search for Another Location

Airport or City:

Trip Planner

Search our weather history database for the weather conditions in past years. The results will help you decide how hot, cold, wet, or windy it might be!

Date:

Astronomy

Oct. 23, 2013 Rise Set
Actual Time 7:32 AM CDT 5:57 PM CDT
Civil Twilight 7:00 AM CDT 6:29 PM CDT
Nautical Twilight 6:24 AM CDT 7:05 PM CDT
Astronomical Twilight 5:49 AM CDT 7:41 PM CDT
Moon 9:18 PM CDT (10/23) 12:00 PM CDT (10/23)
Length of Visible Light 11h 28m
Length of Day
10h 25m
Waning Gibbous, 79% of the Moon is Illuminated
Oct 23
Waning Gibbous
Oct 26
Last Quarter
Nov 3
New
Nov 9
First Quarter
Nov 17
Full

Hourly Weather History & Observations

Time (CDT) Temp. Windchill Dew Point Humidity Pressure Visibility Wind Dir Wind Speed Gust Speed Precip Events Conditions
12:56 AM 34.0 °F 28.0 °F 25.0 °F 70% 29.92 in - NW 6.9 mph - N/A   Unknown
1:56 AM 34.0 °F 28.8 °F 26.1 °F 73% 29.91 in - Variable 5.8 mph - N/A   Unknown
2:56 AM 35.1 °F 27.9 °F 26.1 °F 70% 29.89 in - NW 9.2 mph 17.3 mph N/A   Unknown
3:56 AM 35.1 °F 27.4 °F 27.0 °F 72% 29.88 in - NW 10.4 mph 18.4 mph N/A   Unknown
4:56 AM 34.0 °F 26.6 °F 30.0 °F 85% 29.90 in - NNW 9.2 mph 19.6 mph 0.01 in   Unknown
5:56 AM 33.1 °F 26.9 °F 25.0 °F 72% 29.91 in - NNW 6.9 mph 17.3 mph N/A   Unknown
6:56 AM 30.9 °F 26.2 °F 25.0 °F 79% 29.92 in - West 4.6 mph - N/A   Unknown
7:56 AM 32.0 °F 27.5 °F 26.1 °F 79% 29.93 in - West 4.6 mph - N/A   Unknown
8:56 AM 33.1 °F 30.0 °F 25.0 °F 72% 29.93 in - Variable 3.5 mph - N/A   Unknown
9:56 AM 34.0 °F 29.8 °F 21.9 °F 61% 29.94 in - Variable 4.6 mph - N/A   Unknown
10:56 AM 37.0 °F - 21.9 °F 54% 29.94 in - Calm Calm - N/A   Unknown
11:56 AM 37.0 °F 31.0 °F 23.0 °F 57% 29.95 in - WNW 8.1 mph - N/A   Unknown
12:56 PM 37.9 °F 32.7 °F 23.0 °F 55% 29.94 in - Variable 6.9 mph - N/A   Unknown
1:56 PM 37.9 °F - 23.0 °F 55% 29.94 in - Calm Calm - N/A   Unknown
2:56 PM 39.0 °F - 24.1 °F 55% 29.94 in - Calm Calm - N/A   Unknown
3:56 PM 37.9 °F 32.1 °F 24.1 °F 57% 29.96 in - WNW 8.1 mph - N/A   Unknown
4:56 PM 37.0 °F 33.3 °F 24.1 °F 59% 29.96 in - WNW 4.6 mph - N/A   Unknown
5:56 PM 37.0 °F - 23.0 °F 57% 29.98 in - Calm Calm - N/A   Unknown
6:56 PM 37.0 °F 33.3 °F 25.0 °F 62% 29.98 in - Variable 4.6 mph - N/A   Unknown
7:56 PM 36.0 °F 33.3 °F 24.1 °F 62% 29.99 in - Variable 3.5 mph - N/A   Unknown
8:56 PM 36.0 °F 32.1 °F 26.1 °F 67% 29.99 in - WSW 4.6 mph - N/A   Unknown
9:56 PM 36.0 °F - 24.1 °F 62% 29.99 in - Calm Calm - N/A   Unknown
10:56 PM 35.1 °F 31.0 °F 25.0 °F 67% 29.99 in - Variable 4.6 mph - N/A   Unknown
11:56 PM 36.0 °F 29.0 °F 26.1 °F 67% 29.97 in - NNW 9.2 mph 26.5 mph N/A   Unknown